User: anonymous   Login
Location: Brno
(49.2000°N, 16.6330°E)
Time: 06:18:44
(UTC+01:00)
Language:

Cosmos 1459 Rocket - Orbit

View from above orbital plane
View from above orbital plane
View from above satellite
View from above satellite

Ground track
Ground track

The orbit data is extracted from the following two-line orbital elements,

1 14059U 83042B   15058.30688678  .00000082  00000-0  64572-4 0  9999
2 14059 082.9750 326.0186 0043903 107.7118 040.2309 13.78496587599900
Epoch (UTC): 27 February 2015 07:21:55
Eccentricity: 0.0043903
inclination: 82.9750°
perigee height: 937 km
apogee height: 1001 km
right ascension of ascending node: 326.0186°
argument of perigee: 107.7118°
revolutions per day: 13.78496587
mean anomaly at epoch: 40.2309°
orbit number at epoch: 59990

The dashed part of the orbit path shows where the satellite is in the earth's shadow,  

DLR